Weather History for KNUW - March, 2013

Change the Weather History Date:

Saturday, March 9, 2013

  Actual Average Record
Temperature  
Mean Temperature 39 °F -  
Max Temperature 46 °F 48 °F 57 °F (2011)
Min Temperature 32 °F 36 °F 28 °F (2009)
Degree Days  
Heating Degree Days 26    
Moisture  
Dew Point 36 °F    
Average Humidity 87    
Maximum Humidity 97    
Minimum Humidity 70    
Precipitation  
Precipitation 0.00 in - - ()
Sea Level Pressure  
Sea Level Pressure 30.42 in    
Wind  
Wind Speed 5 mph (SE)    
Max Wind Speed 9 mph    
Max Gust Speed -    
Visibility 6 miles    
Events Fog    
Averages and records for this station are not official NWS values.
T = Trace of Precipitation, MM = Missing Value Source: NWS Daily Summary

Daily Weather History Graph

Daily Weather History Graph

Search for Another Location

Airport or City:

Trip Planner

Search our weather history database for the weather conditions in past years. The results will help you decide how hot, cold, wet, or windy it might be!

Date:

Astronomy

Mar. 09, 2013 Rise Set
Actual Time 6:35 AM PST 6:07 PM PST
Civil Twilight 6:04 AM PST 6:38 PM PST
Nautical Twilight 5:28 AM PST 7:14 PM PST
Astronomical Twilight 4:51 AM PST 7:51 PM PST
Moon 5:10 AM PST (3/9) 4:09 PM PST (3/9)
Length of Visible Light 12h 34m
Length of Day
11h 32m
Waning Crescent, 5% of the Moon is Illuminated
Mar 9
Waning Crescent
Mar 11
New
Mar 19
First Quarter
Mar 27
Full
Apr 2
Last Quarter

Hourly Weather History & Observations

Time (PST) Temp. Windchill Dew Point Humidity Pressure Visibility Wind Dir Wind Speed Gust Speed Precip Events Conditions
12:56 AM 32.0 °F 25.6 °F 29.5 °F 90% 30.28 in 7.0 mi ESE 6.9 mph - N/A Fog Patches of Fog
1:56 AM 33.1 °F 26.9 °F 32.0 °F 96% 30.30 in 7.0 mi East 6.9 mph - N/A   Partly Cloudy
2:56 AM 33.1 °F 28.7 °F 32.0 °F 96% 30.31 in 3.0 mi East 4.6 mph - N/A   Scattered Clouds
3:32 AM 33.8 °F 27.7 °F 32.0 °F 93% 30.30 in 0.5 mi East 6.9 mph - N/A   Mostly Cloudy
3:56 AM 34.0 °F 28.8 °F 32.4 °F 94% 30.32 in 0.5 mi ESE 5.8 mph - N/A Fog Fog
4:56 AM 32.0 °F 24.8 °F 30.9 °F 96% 30.34 in 0.5 mi ESE 8.1 mph - N/A   Overcast
5:34 AM 35.6 °F 32.8 °F 33.8 °F 93% 30.34 in 0.5 mi SE 3.5 mph - N/A   Overcast
5:56 AM 37.0 °F 33.3 °F 34.9 °F 92% 30.36 in 0.5 mi SE 4.6 mph - N/A   Overcast
6:56 AM 37.0 °F 33.3 °F 36.3 °F 97% 30.38 in 0.5 mi East 4.6 mph - N/A Fog Fog
7:56 AM 37.9 °F 33.5 °F 36.0 °F 93% 30.41 in 0.5 mi ESE 5.8 mph - N/A Fog Fog
8:25 AM 39.2 °F 34.2 °F 37.4 °F 93% 30.40 in 0.5 mi ESE 6.9 mph - N/A   Mostly Cloudy
8:56 AM 39.9 °F 34.5 °F 37.9 °F 93% 30.42 in 0.5 mi East 8.1 mph - N/A   Overcast
9:07 AM 39.2 °F 35.0 °F 37.4 °F 93% 30.42 in 1.0 mi ESE 5.8 mph - N/A   Overcast
9:29 AM 41.0 °F 38.0 °F 39.2 °F 93% 30.41 in 4.0 mi ESE 4.6 mph - N/A   Mostly Cloudy
9:56 AM 43.0 °F 41.3 °F 39.9 °F 89% 30.43 in 6.0 mi SE 3.5 mph - N/A   Mostly Cloudy
10:56 AM 45.0 °F 41.2 °F 39.6 °F 81% 30.46 in 10.0 mi Variable 6.9 mph - N/A   Scattered Clouds
11:56 AM 45.0 °F 43.5 °F 37.8 °F 76% 30.46 in 10.0 mi West 3.5 mph - N/A   Scattered Clouds
12:56 PM 46.9 °F - 37.8 °F 70% 30.46 in 10.0 mi West 5.8 mph - N/A   Partly Cloudy
1:56 PM 46.9 °F - 40.1 °F 77% 30.46 in 10.0 mi West 9.2 mph - N/A   Partly Cloudy
2:56 PM 46.9 °F - 39.6 °F 76% 30.46 in 10.0 mi West 4.6 mph - N/A   Partly Cloudy
3:56 PM 46.0 °F 44.8 °F 38.8 °F 76% 30.47 in 10.0 mi WNW 3.5 mph - N/A   Scattered Clouds
4:56 PM 45.0 °F 42.6 °F 37.6 °F 75% 30.48 in 10.0 mi West 4.6 mph - N/A   Scattered Clouds
5:56 PM 45.0 °F 43.5 °F 38.1 °F 77% 30.48 in 10.0 mi West 3.5 mph - N/A   Scattered Clouds
6:56 PM 42.1 °F 40.2 °F 36.0 °F 79% 30.50 in 10.0 mi West 3.5 mph - N/A   Scattered Clouds
7:56 PM 39.9 °F - 36.3 °F 87% 30.51 in 10.0 mi Calm Calm - N/A   Scattered Clouds
8:56 PM 39.0 °F 36.8 °F 36.5 °F 91% 30.51 in 8.0 mi SE 3.5 mph - N/A   Scattered Clouds
9:56 PM 41.0 °F - 37.0 °F 86% 30.52 in 10.0 mi Calm Calm - N/A   Mostly Cloudy
10:56 PM 39.0 °F - 36.0 °F 89% 30.51 in 8.0 mi Calm Calm - N/A   Mostly Cloudy
11:56 PM 39.0 °F 35.7 °F 35.8 °F 88% 30.50 in 10.0 mi ESE 4.6 mph - N/A   Scattered Clouds